Weather History for Scappoose, OR

Change the Weather History Date:

Friday, November 29, 2013

  Actual Average Record
Temperature  
Mean Temperature 34 °F -  
Max Temperature 43 °F - 55 °F (1999)
Min Temperature 27 °F - 26 °F (2006)
Degree Days  
Heating Degree Days 30    
Month to date heating degree days 607  
Since 1 July heating degree days 1177  
Cooling Degree Days 0    
Month to date cooling degree days 0  
Year to date cooling degree days 396  
Moisture  
Dew Point 30 °F    
Average Humidity 88    
Maximum Humidity 100    
Minimum Humidity 76    
Precipitation  
Precipitation 0.02 in - 0.66 in (2005)
Month to date precipitation 3.07  
Year to date precipitation 25.58  
Sea Level Pressure  
Sea Level Pressure 30.30 in    
Wind  
Wind Speed 1 mph (SSE)    
Max Wind Speed 5 mph    
Max Gust Speed 7 mph    
Visibility 4 miles    
Events Fog , Rain    
T = Trace of Precipitation, MM = Missing Value Source: NWS Daily Summary

Daily Weather History Graph

Daily Weather History Graph

Search for Another Location

Airport:

Trip Planner

Search our weather history database for the weather conditions in past years. The results will help you decide how hot, cold, wet, or windy it might be!

Date:

Astronomy

Nov. 29, 2013 Rise Set
Actual Time 7:30 AM PST 4:29 PM PST
Civil Twilight 6:56 AM PST 5:02 PM PST
Nautical Twilight 6:19 AM PST 5:40 PM PST
Astronomical Twilight 5:43 AM PST 6:15 PM PST
Moon 3:31 AM PST (11/29) 2:26 PM PST (11/29)
Length of Visible Light 10h 06m
Length of Day
8h 59m
Waning Crescent, 13% of the Moon is Illuminated
Nov 29
Waning Crescent
Dec 2
New
Dec 9
First Quarter
Dec 17
Full
Dec 25
Last Quarter

Hourly Weather History & Observations

Time (PST) Temp. Windchill Dew Point Humidity Pressure Visibility Wind Dir Wind Speed Gust Speed Precip Events Conditions
12:53 AM 30.9 °F 27.5 °F 28.9 °F 92% 30.23 in 6.0 mi WNW 3.5 mph - N/A   Clear
1:23 AM 28.9 °F - 28.0 °F 96% 30.24 in 1.8 mi Calm Calm - N/A   Clear
1:32 AM 30.0 °F - 28.0 °F 92% 30.23 in 3.0 mi Calm Calm - N/A   Clear
1:53 AM 28.0 °F - 26.1 °F 92% 30.24 in 4.0 mi Calm Calm - N/A   Clear
2:53 AM 28.9 °F - 27.0 °F 92% 30.26 in 2.5 mi Calm Calm - N/A   Clear
3:01 AM 28.9 °F - 27.0 °F 92% 30.26 in 1.0 mi Calm Calm - N/A   Clear
3:08 AM 28.0 °F - 26.1 °F 92% 30.25 in 3.0 mi Calm Calm - N/A   Clear
3:28 AM 28.9 °F - 26.1 °F 89% 30.26 in 1.8 mi Calm Calm - N/A   Clear
3:37 AM 28.0 °F - 26.1 °F 92% 30.26 in 3.0 mi Calm Calm - N/A   Clear
3:53 AM 28.9 °F - 26.1 °F 89% 30.26 in 4.0 mi Calm Calm - N/A   Clear
4:11 AM 28.9 °F - 27.0 °F 92% 30.26 in 0.8 mi Calm Calm - N/A   Mist
4:21 AM 28.9 °F - 27.0 °F 92% 30.26 in 0.2 mi Calm Calm - N/A Fog Light Freezing Fog
4:38 AM 28.9 °F - 27.0 °F 92% 30.27 in 0.5 mi Calm Calm - N/A Fog Light Freezing Fog
4:42 AM 28.0 °F 24.2 °F 27.0 °F 96% 30.27 in 1.0 mi West 3.5 mph - N/A   Mist
4:46 AM 28.0 °F - 26.1 °F 92% 30.27 in 3.0 mi Calm Calm - N/A   Mostly Cloudy
4:53 AM 28.0 °F - 26.1 °F 92% 30.27 in 5.0 mi Calm Calm - N/A   Scattered Clouds
5:53 AM 27.0 °F - 25.0 °F 92% 30.28 in 6.0 mi Calm Calm - N/A   Clear
6:00 AM 27.0 °F - 26.1 °F 96% 30.27 in 0.8 mi Calm Calm - N/A   Clear
6:11 AM 28.0 °F - 26.1 °F 92% 30.28 in 2.0 mi Calm Calm - N/A   Clear
6:21 AM 28.0 °F - 26.1 °F 92% 30.28 in 0.8 mi Calm Calm - N/A   Clear
6:30 AM 28.0 °F - 26.1 °F 92% 30.28 in 2.5 mi Calm Calm - N/A   Clear
6:37 AM 28.0 °F - 26.1 °F 92% 30.28 in 4.0 mi Calm Calm - N/A   Clear
6:53 AM 28.0 °F - 26.1 °F 92% 30.30 in 8.0 mi Calm Calm - N/A   Clear
7:23 AM 28.0 °F - 26.1 °F 92% 30.29 in 6.0 mi Calm Calm - N/A   Scattered Clouds
7:32 AM 28.0 °F - 26.1 °F 92% 30.29 in 6.0 mi Calm Calm - N/A   Mostly Cloudy
7:53 AM 28.0 °F - 27.0 °F 96% 30.30 in 5.0 mi Calm Calm - N/A   Scattered Clouds
7:58 AM 28.9 °F - 27.0 °F 92% 30.30 in 1.2 mi Calm Calm - N/A   Scattered Clouds
8:02 AM 28.9 °F - 28.0 °F 96% 30.30 in 0.2 mi Calm Calm - N/A Fog Light Freezing Fog
8:19 AM 30.0 °F - 28.9 °F 96% 30.31 in 0.2 mi Calm Calm - N/A Fog Light Freezing Fog
8:36 AM 30.9 °F - 28.9 °F 92% 30.31 in 0.2 mi Calm Calm - N/A Fog Light Freezing Fog
8:53 AM 30.9 °F 27.5 °F 30.0 °F 96% 30.32 in 1.2 mi NW 3.5 mph - N/A   Overcast
9:00 AM 32.0 °F - 30.0 °F 92% 30.32 in 5.0 mi Calm Calm - N/A   Overcast
9:53 AM 35.1 °F - 34.0 °F 96% 30.34 in 5.0 mi Calm Calm - N/A   Overcast
10:51 AM 35.6 °F 32.8 °F 33.8 °F 93% 30.32 in 6.0 mi SE 3.5 mph - N/A   Overcast
10:53 AM 36.0 °F 33.3 °F 34.0 °F 93% 30.32 in 6.0 mi ESE 3.5 mph - N/A   Overcast
11:53 AM 37.9 °F - 34.0 °F 86% 30.32 in 7.0 mi Calm Calm - N/A   Overcast
12:53 PM 39.9 °F - 35.1 °F 83% 30.30 in 8.0 mi Calm Calm - N/A   Overcast
1:53 PM 41.0 °F - 36.0 °F 82% 30.30 in 9.0 mi Calm Calm - N/A   Overcast
2:53 PM 42.1 °F - 36.0 °F 79% 30.30 in 10.0 mi Calm Calm - N/A   Overcast
3:53 PM 42.1 °F - 35.1 °F 76% 30.31 in 10.0 mi Calm Calm - N/A   Overcast
4:53 PM 42.1 °F - 36.0 °F 79% 30.32 in 10.0 mi Calm Calm - N/A   Overcast
5:53 PM 42.1 °F - 36.0 °F 79% 30.33 in 9.0 mi Calm Calm - N/A   Overcast
6:53 PM 41.0 °F - 36.0 °F 82% 30.34 in 9.0 mi Calm Calm - N/A   Overcast
7:53 PM 41.0 °F - 37.0 °F 86% 30.35 in 8.0 mi Calm Calm - 0.00 in Rain Light Rain
8:20 PM 41.0 °F - 37.0 °F 86% 30.35 in 6.0 mi Calm Calm - 0.01 in Rain Light Rain
8:53 PM 39.9 °F 37.8 °F 37.9 °F 93% 30.36 in 6.0 mi SSE 3.5 mph - 0.02 in Rain Light Rain
9:53 PM 39.9 °F 37.8 °F 37.0 °F 89% 30.35 in 5.0 mi ESE 3.5 mph - 0.00 in   Overcast
10:38 PM 39.9 °F - 37.9 °F 93% 30.35 in 5.0 mi Calm Calm - N/A   Overcast
10:53 PM 39.9 °F - 37.9 °F 93% 30.35 in 5.0 mi Calm Calm - N/A   Overcast
11:53 PM 41.0 °F - 37.9 °F 89% 30.36 in 6.0 mi Calm Calm - N/A   Overcast